Погода Бологое

Погода Бологое : погода сейчас, прогноз погоды и архив. Всё, что Вы хотите узнать о погоде Бологое!

Поиск расширенной информации на нашем сайте:

Другие новости

Новости СМИ2

Главная страница сайта

Новости сайта

03.07.2017

Напоминаем, что на нашем специализированном сайте Метеоцентр.Азия вы можете получить высокодетализированные автоматические прогнозы погоды по пунктам России, СНГ и мира в авиационном формате (включающие направление и скорость ветра, видимость, явления погоды, количество и форму облачности, нижнюю и верхнюю границу облачности).


Погода Бологое - сегодня

Время (UTC), дата Ветер
(°,м/с) 
Видим.   Явления Облачность Т
(°С)
Тd
(°С)
f(%) Тe
(°С)
Pmin
(гПа)
dP
(гПа)
Po
(мм)
O2
(г/м3)
Тmin Tmax R s Состояние
почвы
09 17.02.18 150 (ЮВ) 4000 м  слаб. снег  10/8 300 м средняя 
[Frnb|As op]
-3.4 -5.9 83 -6  1022.5  -1.1  749  306           
21 17.02.18 130 (ЮВ) 4000 м  слаб. снег  10/8 300 м средняя 
[Frnb|As op]
-5.2 -6.5 91 -5  1020.7  -0.4  748  308           
03 18.02.18 100 (В) 4000 м  слаб. снег  10/8 300 м средняя 
[Frnb|As op]
-6.4 -7.3 93 -6  1019.8  -0.6  747  309  -6.4       
06 18.02.18 тихо ()   4000 м  слаб. снег  10/8 300 м средняя 
[Frnb|As op]
-6.9 -7.8 93 -7  1019.7  -0.2  747  309  -7.5    0.9  36  равномерный
сухой снег
100% 
09 18.02.18 тихо ()   4000 м  слаб. снег  10/10 300 м 
[Frnb|Ns]
-4.9 -6.5 89 -5  1018.9  -0.6  746  307           
21 18.02.18 тихо ()   4000 м  слаб. снег  10/8 300 м средняя 
[Frnb|As op]
-6.6 -7.5 93 -7  1017.9  -0.3  745  309           
03 19.02.18 010 (С) 4000 м  слаб. снег  10/8 300 м средняя 
[Frnb|As op]
-7 -8 93 -7  1017.5  -0.1  745  309  -7.4       
06 19.02.18 340 (С) 4000 м  слаб. снег  10/0 средняя 
[As op]
-8 -9.1 92 -8  1018.1  0.5  745  310  -8.2    0.6  41  равномерный
сухой снег
100% 
09 19.02.18 тихо ()   10 км  {снег}  8/0 средняя, верхняя 
[Ac cast|Ci fib]
-6.1 -8.9 81 -6  1018.4  0.5  746  308           
21 19.02.18 320 (СЗ) 4000 м  слаб. снег  10/8 300 м средняя 
[Frnb|As op]
-7.9 -8.9 93 -8  1020  -0.1  747  311           
03 20.02.18 320 (СЗ) 4000 м  слаб. снег  10/8 300 м средняя 
[Frnb|As op]
-7.9 -9.1 91 -9  1020.1  -0.1  747  311  -8.4       
06 20.02.18 350 (С) 4000 м  в посл. час снег  8/4 600 м средняя 
[Sc|Ac cast]
-9.5 -11 89 -9  1021  0.7  747  313  -9.5    43  равномерный
сухой снег
100% 
09 20.02.18 320 (СЗ) 10 км  слаб. ливневой снег  8/8 600 м кучево-дожд. 
[Cb cap]
-7.5 -10.8 77 -10  1021.5  0.7  748  311           
21 20.02.18 290 (З) 10 км    ясно 
-14.6 -16.3 87 -15  1024  0.3  749  320           
03 21.02.18 300 (СЗ) 10 км  [диам. изморози 5 мм]  ясно 
-17.5 -19.6 84 -18  1025.7  0.5  750  325  -17.8    0.0     
06 21.02.18 290 (З) 10 км  [диам. изморози 6 мм]  9/9 600 м 
[Sc]
-17.4 -19.6 83 -18  1025.9  0.3  751  325  -18.3      43  равномерный
сухой снег
100% 
09 21.02.18 330 (СЗ) 10 км  [диам. изморози 6 мм]  9/9 600 м 
[Sc]
-11.3 -13.8 82 -11  1026  0.6  751  317           
21 21.02.18 тихо ()   10 км    ясно 
-16.7 -18.5 86 -17  1028.8  753  325           
03 22.02.18 тихо ()   10 км  [диам. изморози 3 мм]  ясно 
-21.5 -24 80 -22  1030.4  0.4  753  331  -21.5         
06 22.02.18 тихо ()   10 км  [диам. изморози 6 мм]  3/3 600 м 
[Sc]
-19.7 -22.1 81 -20  1030.7  0.5  754  329  -21.6      43  равномерный
сухой снег
100% 
09 22.02.18 290 (З) 10 км  [диам. изморози 6 мм]  ясно 
-12 -14.9 79 -12  1030.3  0.4  754  319           
15 22.02.18 300 (СЗ) 10 км    ясно 
-10.5 -14.4 73 -10  1029  -0.8  753  317           
21 22.02.18 тихо ()   10 км  [диам. изморози 1 мм]  ясно 
-17.5 -19.6 84 -18  1029.8  -0.3  753  326           
03 23.02.18 тихо ()   10 км  [диам. изморози 6 мм]  ясно 
-19.7 -22.1 81 -20  1029.2  -0.7  753  329  -20.4         
06 23.02.18 тихо ()   10 км  [диам. изморози 7 мм]  8/0 верхняя 
[Ci fib]
-18.6 -20.9 82 -19  1028.9  -0.2  753  327  -20.4      41  равномерный
сухой снег
100% 
Время (UTC), дата Ветер
(°,м/с) 
Видим.   Явления Облачность Т
(°С)
Тd
(°С)
f(%) Тe
(°С)
Pmin
(гПа)
dP
(гПа)
Po
(мм)
O2
(г/м3)
Тmin Tmax R s Состояние
почвы

Для получения пояснительной информации подведите курсор к названию столбца.

ПОГОДА Бологое - архив

Всё, что Вы хотите узнать о погоде Бологое - удобно и подробно!

Выберите нужную дату (начиная с 1 января 2015* года) и нажмите кнопку "Найти".
Будут отображены архивные сводки погоды по пункту Бологое, начиная с указанной даты.


Отображать данные в формате CSV (для использования в таблицах Excel)


Внимание! Наш архив погоды предназначен исключительно для личного некоммерческого использования в познавательных целях. Если Вам необходимы официальные справки о состоянии погоды (для производственных, юридических, коммерческих и т.п. целей), обращайтесь в органы Росгидромета.

*Примечание: данная дата относится к архиву по метеостанциям СССР (Россия, СНГ, Балтия).
Архив по метеостанциям Зарубежной Европы и Азии (кроме Китая) хранится 10 дней, по другим регионам земного шара (Китай, Африка, Америка, Австралия, Океания) - 1 день.

Бологое - район местоположения метеостанции


Название, широта, долгота, высота метеостанции:
Бологое 57.9°ш. 34.1°д. 188 м над ур. моря [Российская Федерация]

Дополнительная информация

В oтличие oт бoльшинства пoгoдных сайтoв мы публикуем пoдрoбную метеoинфoрмацию в детальнoм прoфессиoнальнoм фoрмате.

Характеристики температуры и влажнoсти вoздуха измеряются на высoте 2 м в тени вдали oт зданий и деревьев.
Скoрoсть ветра измеряется на высoте 10 м (на урoвне рoста челoвека скoрoсть ветра ниже в 1.5-2 раза). Если метеoстанция нахoдится в гoрoде или в лесу, тo скoрoсть ветра занижена на 2-4 м/с пo сравнению с oткрытым местoм. Скoрoсть ветра над акватoриями крупных рек и oзёр, а также на вершинах хoлмoв на 2-5 м/с выше, чем в oбычных услoвиях.
Атмoсфернoе давление в разных тoчках местнoсти мoжет значительнo oтличаться oт давления на метеoстанции, в зависимoсти oт услoвий рельефа (при пoдъёме на 10 м давление пoнижается примернo на 1 мм рт.ст.).